DK1MAX-13 Weather Reports


Display with metric or nautical units.
time (UTC)temp
F
wind
direction
speed
MPH
gust
MPH
rain 1hr
in
rain 24hr
in
rain mn
in
humidity
%
barometer
mb
20220517232723 58 0.0 0.0 0.00 0.00 0.00 81 1020.6
20220517231732 57 0.0 0.0 0.00 0.00 0.00 83 1020.6
20220517230747 56 0.0 0.0 0.00 0.00 0.00 85 1020.5
20220517225721 57 0.0 0.0 0.00 0.00 0.00 84 1020.5
20220517224731 58 0.0 0.0 0.00 0.00 0.00 82 1020.5
20220517223744 58 188 0.0 1.0 0.00 0.00 0.00 82 1020.6
20220517222723 58 0.0 0.0 0.00 0.00 0.00 83 1020.7
20220517221735 59 182 0.0 1.0 0.00 0.00 0.00 78 1020.6
20220517220748 59 188 0.0 1.0 0.00 0.00 0.00 77 1020.5
20220517215724 59 193 0.0 1.0 0.00 0.00 0.00 78 1020.4
20220517214737 59 0.0 0.0 0.00 0.00 0.00 79 1020.3
20220517213753 60 0.0 0.0 0.00 0.01 0.00 76 1020.1
20220517212734 60 197 0.0 1.0 0.00 0.04 0.00 75 1020.1
20220517211739 60 0.0 0.0 0.00 0.05 0.00 77 1020.0
20220517210720 62 0.0 0.0 0.00 0.05 0.00 74 1019.7
20220517205729 62 160 0.0 1.0 0.00 0.05 0.00 70 1019.7
20220517204741 63 0.0 0.0 0.00 0.05 0.00 69 1019.8
20220517203727 63 0.0 0.0 0.00 0.05 0.00 67 1019.6
20220517202731 63 0.0 0.0 0.00 0.05 0.00 68 1019.8
20220517201746 64 0.0 0.0 0.00 0.05 0.00 68 1019.6
20220517200721 64 144 0.0 1.0 0.00 0.05 0.00 67 1019.7
20220517195735 64 149 0.0 1.0 0.00 0.05 0.00 68 1019.4
20220517194746 64 164 0.0 1.0 0.00 0.05 0.00 67 1019.4
20220517193722 65 0.0 0.0 0.00 0.05 0.00 65 1019.3
20220517192733 66 0.0 0.0 0.00 0.05 0.00 63 1019.1
20220517191747 67 74 0.0 1.0 0.00 0.05 0.00 60 1019.1
20220517190726 68 102 0.0 1.0 0.00 0.05 0.00 58 1019.0
20220517185722 68 0.0 0.0 0.00 0.05 0.00 57 1018.9
20220517184748 69 0.0 2.0 0.00 0.05 0.00 55 1018.9
20220517183726 71 324 0.0 2.0 0.00 0.05 0.00 53 1018.7
20220517182742 72 34 0.0 3.0 0.00 0.05 0.00 51 1018.5
20220517181903 72 22 1.0 2.0 0.00 0.05 0.00 51 1018.6
20220517180728 73 46 2.0 6.0 0.00 0.05 0.00 48 1018.4
20220517175743 73 31 1.0 4.0 0.00 0.05 0.00 48 1018.3
20220517174722 74 18 2.0 9.0 0.00 0.05 0.00 47 1018.2
20220517173733 75 17 2.0 6.0 0.00 0.05 0.00 47 1018.2
20220517172744 76 50 2.0 7.0 0.00 0.05 0.00 47 1018.2
20220517171829 76 17 1.0 4.0 0.00 0.05 0.00 46 1018.2
20220517170732 77 324 2.0 6.0 0.00 0.05 0.00 46 1018.1
20220517165744 76 31 2.0 7.0 0.00 0.05 0.00 47 1018.1